Observations for Trim Patrick St
| Time | AQI | Temp °C | Hum % | Pres Pa | CO μg/m³ | H₂S μg/m³ | NO μg/m³ | NO₂ μg/m³ | O₃ μg/m³ | SO₂ μg/m³ | PM1 μg/m³ | PM2.5 μg/m³ | PM10 μg/m³ |
|---|---|---|---|---|---|---|---|---|---|---|---|---|---|
| Sunday 2 August 2026 | |||||||||||||
| 08:00 | 2 | 17.3 | 68 | 19,166 | 0.3 | 0 | 2.08 | 12.78 | 28.48 | 0.62 | 4.57 | 10.32 | 11.36 |
| 07:59 | 2 | 17.2 | 68 | 22,561 | 0.3 | 0 | 1.66 | 12.12 | 28.74 | 0.44 | 5.43 | 11.77 | 12.94 |
| 07:58 | 2 | 17.2 | 69 | 26,295 | 0.31 | 0 | 1.56 | 16.05 | 28.03 | 0.71 | 6.29 | 12.48 | 13.73 |
| 07:57 | 2 | 17.1 | 69 | 29,726 | 0.3 | 0 | 1.47 | 14.82 | 28.1 | 0.94 | 5.43 | 11.74 | 12.91 |
| 07:55 | 2 | 16.9 | 69 | 35,260 | 0.31 | 0 | 1.59 | 15.01 | 27.78 | 0.62 | 6.29 | 11.72 | 12.9 |
| 07:53 | 2 | 16.8 | 69 | 38,276 | 0.3 | 0 | 1.66 | 13.11 | 26.92 | 0.21 | 7.14 | 13.14 | 14.46 |
| 07:52 | 2 | 16.7 | 69 | 38,460 | 0.31 | 0 | 1.81 | 12.66 | 26.52 | 0.4 | 7.14 | 13.14 | 14.45 |
| 07:51 | 2 | 16.6 | 69 | 38,460 | 0.29 | 0 | 1.96 | 12.04 | 26.84 | 0.72 | 7.14 | 13.14 | 14.46 |
| 07:49 | 2 | 16.5 | 70 | 38,460 | 0.29 | 0 | 1.56 | 12.09 | 26.02 | 0.17 | 7.14 | 12.4 | 13.64 |
| 07:48 | 2 | 16.4 | 70 | 38,460 | 0.3 | 0 | 1.59 | 11.23 | 26.25 | 0 | 8 | 13.1 | 14.41 |
| 07:47 | 2 | 16.4 | 70 | 38,460 | 0.29 | 0 | 1.62 | 11.48 | 25.36 | 0 | 5.43 | 12.36 | 13.6 |
| 07:46 | 2 | 16.3 | 70 | 38,460 | 0.29 | 0 | 1.59 | 15.88 | 27.57 | 0 | 6.29 | 11.63 | 12.79 |
| 07:45 | 2 | 16.2 | 70 | 38,460 | 0.29 | 0 | 1.79 | 11.47 | 25.37 | 0 | 4.57 | 9.46 | 10.41 |
| 07:44 | 2 | 16.2 | 70 | 38,460 | 0.29 | 0 | 1.76 | 11.49 | 24.27 | 0 | 6.29 | 10.9 | 11.99 |
| 07:43 | 2 | 16.1 | 70 | 38,460 | 0.29 | 0 | 2.16 | 12.05 | 25.7 | 0 | 8 | 13.06 | 14.36 |
| 07:42 | 2 | 16.1 | 70 | 38,460 | 0.29 | 0 | 2.38 | 11.87 | 24.54 | 0 | 5.43 | 11.6 | 12.76 |
| 07:41 | 2 | 16 | 71 | 38,460 | 0.29 | 0 | 2.24 | 11.7 | 23.96 | 0 | 5.43 | 10.87 | 11.96 |
| 07:40 | 2 | 16 | 71 | 38,460 | 0.3 | 0 | 2.26 | 11 | 23.82 | 0 | 6.29 | 11.58 | 12.74 |
| 07:39 | 2 | 15.9 | 71 | 38,460 | 0.29 | 0 | 2.78 | 11.72 | 23.46 | 0 | 4.57 | 10.15 | 11.16 |
| 07:38 | 2 | 15.9 | 71 | 38,460 | 0.3 | 0 | 2.44 | 12.18 | 22.77 | 0 | 6.29 | 11.58 | 12.73 |